TimeAKST,TemperatureF,Dew PointF,Humidity,Sea Level PressureIn,VisibilityMPH,Wind Direction,Wind SpeedMPH,Gust SpeedMPH,PrecipitationIn,Events,Conditions,WindDirDegrees,DateUTC
12:53 AM,42.1,34.0,73,29.93,10.0,Calm,Calm,-,N/A,,Overcast,0,2013-01-21 09:53:00
1:53 AM,35.1,34.0,96,29.93,10.0,Calm,Calm,-,N/A,,Overcast,0,2013-01-21 10:53:00
3:53 AM,36.0,33.1,89,29.91,10.0,Calm,Calm,-,N/A,,Overcast,0,2013-01-21 12:53:00
4:53 AM,34.0,33.1,96,29.90,10.0,Calm,Calm,-,N/A,,Overcast,0,2013-01-21 13:53:00
5:53 AM,34.0,33.1,96,29.90,10.0,Calm,Calm,-,N/A,,Overcast,0,2013-01-21 14:53:00
6:53 AM,34.0,32.0,92,29.88,10.0,Calm,Calm,-,N/A,,Overcast,0,2013-01-21 15:53:00
7:53 AM,34.0,32.0,92,29.87,10.0,Calm,Calm,-,N/A,,Overcast,0,2013-01-21 16:53:00
8:53 AM,34.0,33.1,96,29.87,10.0,Calm,Calm,-,N/A,,Overcast,0,2013-01-21 17:53:00
9:53 AM,34.0,32.0,92,29.87,10.0,Calm,Calm,-,N/A,,Overcast,0,2013-01-21 18:53:00
10:53 AM,36.0,33.1,89,29.87,10.0,Calm,Calm,-,N/A,,Overcast,0,2013-01-21 19:53:00
11:53 AM,43.0,33.1,68,29.86,10.0,Variable,3.5,-,N/A,,Overcast,0,2013-01-21 20:53:00
12:53 PM,44.1,33.1,65,29.85,10.0,Calm,Calm,-,N/A,,Overcast,0,2013-01-21 21:53:00
1:53 PM,44.1,32.0,63,29.84,10.0,East,5.8,-,N/A,,Overcast,90,2013-01-21 22:53:00
2:53 PM,45.0,33.1,63,29.82,10.0,East,9.2,-,N/A,,Overcast,100,2013-01-21 23:53:00
3:53 PM,45.0,35.1,68,29.82,10.0,ESE,11.5,23.0,N/A,,Overcast,110,2013-01-22 00:53:00
4:53 PM,44.1,35.1,71,29.81,10.0,ESE,13.8,25.3,0.00,Rain,Light Rain,110,2013-01-22 01:53:00
5:53 PM,42.1,35.1,76,29.81,10.0,East,8.1,-,0.01,Rain,Light Rain,90,2013-01-22 02:53:00
6:53 PM,44.1,34.0,68,29.81,10.0,ESE,12.7,27.6,0.00,,Overcast,110,2013-01-22 03:53:00
7:53 PM,44.1,34.0,68,29.80,10.0,ESE,9.2,-,N/A,,Overcast,120,2013-01-22 04:53:00
8:53 PM,44.1,34.0,68,29.80,10.0,East,5.8,-,N/A,,Overcast,90,2013-01-22 05:53:00
9:53 PM,44.1,33.1,65,29.80,10.0,East,5.8,-,N/A,,Overcast,90,2013-01-22 06:53:00
10:53 PM,44.1,33.1,65,29.78,10.0,East,5.8,-,N/A,,Overcast,90,2013-01-22 07:53:00
11:53 PM,43.0,34.0,71,29.77,10.0,East,5.8,-,N/A,,Overcast,100,2013-01-22 08:53:00